IRIDIUM 164 (43577 NORAD) Tracking and Keplerian Element Data

This shows tracking and keplerian element data for the satellite.

Feedback or suggestion? Click here.




ElementValue
Catalog43577
NameIRIDIUM 164
Epoch Orbit38772
Epoch Day353.93286493
Epoch Year2025
RAAN131.7219
Inclination86.3995
Eccentricity0.0002077
Argument of Perigee90.1641
Mean Anonmoly269.9793
Mean Motion14.34217597
Decay Rate1.83E-06
L11 43577U 18061J 25353.93286493 .00000183 00000+0 58401-4 0 9997
L22 43577 86.3995 131.7219 0002077 90.1641 269.9793 14.34217597387724



Live tracking and technical data element details for IRIDIUM 164 (NORAD 43577). IRIDIUM 164 can be tracked NOW for your location showing map with azimuth and elevation plus other details from your city location.







IsCatalogInMostPopularTable: catalog: 43577, numindb: 853
Update: records affected: 1



GetName: 43577 IRIDIUM 164

Hit Count: updated at: Sat, 07 Mar 2026 06:53:34 GMT